NAVSTAR 51 (USA 166) 1 27663U 03005A 21109.48170937 .00000013 00000-0 00000-0 0 9998 2 27663 55.8194 289.8684 0121112 37.6657 328.2278 2.00562875133515 XSS-10 1 27664U 03005B 21110.14767220 .00000063 00000-0 22128-4 0 9995 2 27664 39.7480 105.9306 0175848 131.9481 229.6437 14.79229132982903 DELTA 2 R/B(1) 1 27665U 03005C 21110.45643054 -.00000009 00000-0 30302-4 0 9992 2 27665 39.5747 164.4699 0008897 26.6562 349.2394 14.28551249951641